Stations météo

Publicité
Niort, France (7330): Température de l'air & dewpoint: 20.04.2018 17:00:00 - 26.04.2018 17:00:00 (CEST)Niort, France (7330): Température de l'air 5cm: 20.04.2018 17:00:00 - 26.04.2018 17:00:00 (CEST)Niort, France (7330): Température de l'air -20cm & Température de l'air -100cm: 20.04.2018 17:00:00 - 26.04.2018 17:00:00 (CEST)Niort, France (7330): Vitesse du vent & gusts: 20.04.2018 17:00:00 - 26.04.2018 17:00:00 (CEST)Niort, France (7330): Direction du vent: 20.04.2018 17:00:00 - 26.04.2018 17:00:00 (CEST)Niort, France (7330): reduced air pressure: 20.04.2018 17:00:00 - 26.04.2018 17:00:00 (CEST)Niort, France (7330): visibility: 20.04.2018 17:00:00 - 26.04.2018 17:00:00 (CEST)Niort, France (7330): Ensoleillement: 20.04.2018 17:00:00 - 26.04.2018 17:00:00 (CEST)Niort, France (7330): Quantités de précipitations: 20.04.2018 17:00:00 - 26.04.2018 17:00:00 (CEST)
Date & Time tt [°C] td [°C] tt 5cm [°C] tt -20cm [°C] tt -100cm [°C] ff [km/h] ff [knt] fx [km/h] fx [knt] dd ppp [hPa] vv [km] sd [min] rr [mm]
26.04.2018 17:00:00 - - - - - - - - - - - - - -
26.04.2018 16:00:00 16,5 6,9 18,5 15,0 13,5 12 7 24 13 WSW 1021,7 20 22 0,0
26.04.2018 15:00:00 15,4 6,4 17,3 15,0 13,5 10 5 24 13 SW 1022,5 20 2 0,0
26.04.2018 14:00:00 15,8 5,1 19,2 15,0 13,5 5 3 19 11 WNW 1023,0 20 27 0,0
26.04.2018 13:00:00 15,3 4,9 16,1 15,0 13,4 8 4 21 11 SSW 1023,4 20 35 0,0
26.04.2018 12:00:00 13,9 6,0 14,7 15,1 13,4 6 3 18 10 NW 1024,1 20 30 0,0
26.04.2018 11:00:00 13,5 7,0 14,5 15,1 13,5 6 4 16 9 NW 1024,3 20 54 0,0
26.04.2018 10:00:00 12,1 7,0 10,7 15,1 13,4 4 2 8 4 N 1024,4 20 60 0,0
26.04.2018 09:00:00 9,1 8,3 5,0 15,1 13,4 0 0 4 2 N 1024,7 17 60 0,0
26.04.2018 08:00:00 4,2 3,6 -1,4 15,1 13,4 3 2 4 2 SE 1024,4 5 41 0,0
26.04.2018 07:00:00 2,8 1,9 -1,4 15,1 13,4 0 0 5 3 N 1024,3 5 0 0,0
26.04.2018 06:00:00 3,6 2,6 -1,2 15,2 13,4 3 2 8 4 E 1024,1 8 0 0,0
26.04.2018 05:00:00 6,2 5,0 0,3 15,2 13,4 6 3 14 8 NW 1024,2 17 0 0,0
26.04.2018 04:00:00 6,8 5,7 2,5 15,2 13,4 8 5 12 7 WNW 1024,3 18 0 0,0
26.04.2018 03:00:00 7,5 6,1 4,6 15,2 13,4 7 4 9 5 WSW 1024,4 19 0 0,0
26.04.2018 02:00:00 7,9 6,0 4,9 15,2 13,4 5 3 12 7 WSW 1024,5 20 0 0,0
26.04.2018 01:00:00 8,2 6,2 6,5 15,2 13,4 9 5 13 7 SW 1024,2 20 0 0,0
26.04.2018 00:00:00 9,0 5,7 7,5 15,2 13,4 9 5 19 10 WSW 1023,9 20 0 0,0
25.04.2018 23:00:00 10,7 6,4 9,2 15,2 13,4 13 7 25 14 W 1023,7 20 0 0,0
25.04.2018 22:00:00 11,7 6,8 10,5 15,2 13,4 15 8 31 17 W 1022,9 20 0 0,0
25.04.2018 21:00:00 12,9 6,5 11,6 15,2 13,4 15 8 35 19 WNW 1021,7 20 26 0,0
25.04.2018 20:00:00 14,4 5,2 13,8 15,2 13,3 23 12 38 21 WNW 1020,8 20 46 0,0
25.04.2018 19:00:00 16,1 7,0 15,9 15,2 13,4 22 12 39 21 WNW 1020,5 20 29 0,0
25.04.2018 18:00:00 16,5 7,2 17,3 15,3 13,3 22 12 42 23 W 1019,9 20 55 0,0
25.04.2018 17:00:00 16,5 9,7 16,2 15,2 13,3 24 13 38 20 WSW 1020,1 20 6 0,0
25.04.2018 16:00:00 15,8 12,4 14,6 15,3 13,3 21 12 41 22 W 1020,5 20 7 0,0
25.04.2018 15:00:00 14,9 13,6 14,8 15,3 13,3 26 14 45 25 W 1020,6 6 3 0,8
25.04.2018 14:00:00 15,4 12,0 14,4 15,3 13,3 26 14 41 22 WSW 1020,6 19 0 0,0
25.04.2018 13:00:00 15,2 12,3 14,2 15,3 13,3 22 12 36 19 SW 1020,8 20 1 0,0
25.04.2018 12:00:00 14,5 11,8 14,0 15,3 13,3 20 11 31 17 WSW 1020,9 20 2 0,0
25.04.2018 11:00:00 13,5 12,1 13,4 15,3 13,3 17 9 27 14 SW 1020,6 14 0 0,0
25.04.2018 10:00:00 12,8 11,7 12,4 15,3 13,2 12 6 17 9 SW 1020,2 19 0 0,0
25.04.2018 09:00:00 11,5 10,9 10,5 15,3 13,2 6 3 11 6 SW 1020,1 3,3 0 0,2
25.04.2018 08:00:00 10,1 9,3 9,2 15,3 13,3 5 3 8 4 S 1019,7 5 0 0,0
25.04.2018 07:00:00 9,1 8,0 8,7 15,3 13,2 5 3 8 4 SSE 1019,2 12 0 0,0
25.04.2018 06:00:00 8,7 7,9 7,7 15,3 13,3 4 2 12 6 S 1018,7 12 0 0,0
25.04.2018 05:00:00 8,1 7,0 3,3 15,3 13,2 5 3 11 6 W 1018,6 16 0 0,0
25.04.2018 04:00:00 7,3 6,2 4,2 15,3 13,2 5 3 11 6 W 1018,4 10 0 0,0
25.04.2018 03:00:00 8,0 6,8 6,8 15,2 13,2 7 4 11 6 WSW 1018,5 12 0 0,0
25.04.2018 02:00:00 9,2 7,3 7,8 15,2 13,2 7 4 13 7 WSW 1018,7 19 0 0,0
25.04.2018 01:00:00 10,1 8,0 9,0 15,2 13,2 10 6 26 14 WNW 1018,7 20 0 0,0
25.04.2018 00:00:00 11,4 8,3 10,6 15,2 13,2 16 9 28 15 WNW 1018,6 20 0 0,0
24.04.2018 23:00:00 12,1 8,4 10,6 15,2 13,2 11 6 18 10 W 1018,3 20 0 0,0
24.04.2018 22:00:00 12,5 9,1 11,2 15,2 13,2 10 5 15 8 WSW 1017,8 20 0 0,0
24.04.2018 21:00:00 15,1 10,1 13,8 15,2 13,2 11 6 20 11 W 1017,6 20 37 0,0
24.04.2018 20:00:00 17,4 11,2 18,0 15,2 13,1 15 8 25 14 WSW 1017,3 20 53 0,0
24.04.2018 19:00:00 18,9 11,9 19,5 15,2 13,1 16 9 27 14 WSW 1017,6 20 47 0,0
24.04.2018 18:00:00 19,2 12,0 20,8 15,2 13,1 14 8 23 13 WSW 1018,1 20 37 0,0
24.04.2018 17:00:00 19,5 12,3 23,2 15,3 13,1 5 3 17 9 SSW 1018,6 20 38 0,0
24.04.2018 16:00:00 19,3 12,3 21,2 15,2 13,1 8 4 22 12 SW 1019,4 20 32 0,0
24.04.2018 15:00:00 17,8 11,4 20,8 15,3 13,0 11 6 27 15 W 1020,1 20 23 0,0
24.04.2018 14:00:00 18,5 11,6 22,6 15,3 13,1 10 6 24 13 WSW 1020,5 20 56 0,0
24.04.2018 13:00:00 17,1 10,9 19,8 15,3 13,0 14 7 24 13 W 1021,1 20 60 0,0
24.04.2018 12:00:00 15,4 9,7 16,9 15,3 13,0 8 5 22 12 WSW 1021,4 20 60 0,0
24.04.2018 11:00:00 13,9 9,7 14,5 15,3 13,0 7 4 13 7 SW 1021,6 19 60 0,0
24.04.2018 10:00:00 11,7 9,3 10,8 15,3 13,0 3 2 9 5 W 1021,9 19 60 0,0
24.04.2018 09:00:00 9,6 9,3 6,5 15,3 13,0 0 0 2 1 N 1022,0 9 56 0,0
24.04.2018 08:00:00 6,0 5,6 2,0 15,3 13,0 0 0 4 2 N 1021,8 0,2 7 0,0
24.04.2018 07:00:00 4,9 4,3 1,2 15,3 13,0 0 0 3 2 N 1021,3 0,1 0 0,0
24.04.2018 06:00:00 5,2 4,3 1,9 15,3 13,0 0 0 3 1 N 1021,4 0,7 0 0,0
24.04.2018 05:00:00 6,0 5,0 2,5 15,3 13,0 3 2 5 3 WSW 1021,8 2,9 0 0,0
24.04.2018 04:00:00 7,9 6,8 4,6 15,3 13,0 5 3 7 4 SW 1021,8 10 0 0,0
24.04.2018 03:00:00 8,7 7,6 4,0 15,2 12,9 4 2 5 3 SW 1021,9 17 0 0,0
24.04.2018 02:00:00 9,3 7,1 5,3 15,2 12,9 3 2 8 5 W 1022,1 16 0 0,0
24.04.2018 01:00:00 10,7 8,3 9,0 15,2 12,9 6 4 15 8 W 1022,1 20 0 0,0
24.04.2018 00:00:00 11,8 9,0 10,4 15,1 12,9 10 5 18 10 WNW 1022,2 20 0 0,0
23.04.2018 23:00:00 12,4 9,4 11,1 15,2 12,9 9 5 14 8 W 1022,1 20 0 0,0
23.04.2018 22:00:00 13,0 10,0 11,2 15,2 12,9 9 5 17 9 W 1021,9 20 0 0,0
23.04.2018 21:00:00 14,9 10,5 13,6 15,2 12,9 10 6 21 11 W 1021,1 20 27 0,0
23.04.2018 20:00:00 16,5 11,0 17,4 15,1 12,8 14 8 24 13 W 1020,8 20 60 0,0
23.04.2018 19:00:00 17,9 11,2 19,0 15,1 12,8 14 7 26 14 W 1020,7 20 23 0,0
23.04.2018 18:00:00 18,4 11,5 19,7 15,1 12,8 15 8 24 13 W 1020,6 20 22 0,0
23.04.2018 17:00:00 18,9 11,5 21,4 15,1 12,8 7 4 27 14 W 1020,6 20 13 0,0
23.04.2018 16:00:00 18,4 11,0 21,1 15,1 12,8 12 6 22 12 WSW 1020,9 20 13 0,0
23.04.2018 15:00:00 17,7 11,0 21,0 15,1 12,8 12 6 26 14 WNW 1021,3 20 36 0,0
23.04.2018 14:00:00 17,3 10,7 20,1 15,1 12,8 13 7 22 12 NW 1021,5 20 28 0,0
23.04.2018 13:00:00 17,3 10,7 20,7 15,1 12,8 12 6 22 12 W 1021,7 20 52 0,0
23.04.2018 12:00:00 16,6 10,2 18,0 15,1 12,7 8 5 22 12 WNW 1021,7 20 60 0,0
23.04.2018 11:00:00 15,5 10,5 16,3 15,1 12,7 4 2 15 8 NW 1021,6 18 52 0,0
23.04.2018 10:00:00 14,1 9,9 15,0 15,1 12,7 5 3 14 8 NNW 1020,8 18 49 0,0
23.04.2018 09:00:00 13,6 10,2 12,8 15,1 12,7 7 4 17 9 NW 1020,4 15 60 0,0
23.04.2018 08:00:00 12,6 10,5 12,3 15,1 12,7 12 6 21 11 WNW 1020,1 8 7 0,0
23.04.2018 07:00:00 13,4 11,1 13,1 15,1 12,7 14 7 23 12 WNW 1019,1 8 0 0,0
23.04.2018 06:00:00 13,7 11,2 13,5 15,0 12,7 16 9 24 13 WNW 1018,9 8 0 0,0
23.04.2018 05:00:00 14,1 12,1 13,9 15,0 12,7 10 5 16 9 W 1018,7 6 0 0,0
23.04.2018 04:00:00 14,2 12,4 14,0 15,0 12,7 13 7 22 12 W 1018,5 5 0 0,0
23.04.2018 03:00:00 14,1 12,8 13,9 15,0 12,7 12 6 21 11 WSW 1018,5 6 0 0,0
23.04.2018 02:00:00 14,1 13,0 13,0 14,9 12,6 13 7 29 15 WSW 1018,6 7 0 0,0
23.04.2018 01:00:00 13,7 12,6 13,0 14,9 12,6 10 5 16 8 WSW 1018,1 5 0 0,0
23.04.2018 00:00:00 14,7 13,4 13,1 14,9 12,6 9 5 13 7 WNW 1017,7 10 0 0,0
22.04.2018 23:00:00 15,5 12,6 14,3 14,9 12,6 6 3 16 8 WSW 1017,5 16 0 0,0
22.04.2018 22:00:00 16,4 13,1 15,3 14,9 12,6 9 5 13 7 WSW 1016,6 17 0 0,0
22.04.2018 21:00:00 17,0 12,5 16,1 14,8 12,6 9 5 25 14 WSW 1016,0 19 9 0,0
22.04.2018 20:00:00 18,7 11,5 18,3 14,8 12,5 19 10 30 16 WNW 1015,3 20 3 0,0
22.04.2018 19:00:00 21,4 13,1 21,7 14,8 12,5 16 9 26 14 WSW 1014,8 20 44 0,0
22.04.2018 18:00:00 23,1 11,2 23,1 14,8 12,5 13 7 24 13 SW 1014,3 20 36 0,0
22.04.2018 17:00:00 22,8 12,4 24,7 14,8 12,5 16 9 26 14 WSW 1014,6 20 25 0,0
22.04.2018 16:00:00 23,5 13,4 25,0 14,8 12,5 16 8 27 15 SW 1014,8 20 20 0,0
22.04.2018 15:00:00 24,0 15,0 27,6 14,8 12,5 19 11 32 17 WSW 1014,7 18 55 0,0
22.04.2018 14:00:00 24,3 14,1 26,6 14,8 12,5 16 9 27 15 SW 1014,5 20 56 0,0
22.04.2018 13:00:00 23,5 13,7 25,9 14,8 12,5 18 10 29 16 SSW 1014,8 20 60 0,0
22.04.2018 12:00:00 21,8 13,7 22,3 14,8 12,5 13 7 20 11 SSE 1014,9 20 51 0,0
22.04.2018 11:00:00 19,1 12,8 18,4 14,8 12,5 8 5 19 11 SE 1015,0 20 3 0,0
22.04.2018 10:00:00 17,3 13,0 16,5 14,7 12,4 9 5 16 8 SSE 1015,1 20 0 0,0
22.04.2018 09:00:00 15,7 12,8 14,1 14,7 12,4 9 5 13 7 SE 1014,8 20 0 0,0
22.04.2018 08:00:00 14,5 11,8 13,6 14,7 12,4 9 5 13 7 SE 1014,7 20 0 0,0
22.04.2018 07:00:00 14,7 11,5 13,6 14,7 12,4 8 4 12 7 SE 1014,3 20 0 0,0
22.04.2018 06:00:00 14,9 11,9 13,3 14,6 12,4 7 4 14 7 SE 1014,3 20 0 0,0
22.04.2018 05:00:00 14,3 11,8 11,3 14,6 12,4 4 2 10 5 SE 1014,6 18 0 0,0
22.04.2018 04:00:00 13,4 11,5 10,8 14,5 12,3 6 3 11 6 ESE 1014,6 18 0 0,0
22.04.2018 03:00:00 13,4 11,6 9,4 14,5 12,4 6 4 10 6 SE 1014,9 19 0 0,0
22.04.2018 02:00:00 12,8 11,2 9,6 14,4 12,3 4 2 8 4 E 1015,2 12 0 0,0
22.04.2018 01:00:00 13,9 11,6 10,7 14,4 12,3 7 4 9 5 E 1015,2 17 0 0,0
22.04.2018 00:00:00 16,3 12,3 12,6 14,4 12,3 4 2 10 5 S 1015,4 20 0 0,0
21.04.2018 23:00:00 18,8 13,0 13,4 14,3 12,3 6 4 8 5 SSW 1015,4 20 0 0,0
21.04.2018 22:00:00 20,5 13,2 15,2 14,4 12,3 6 3 14 8 NW 1015,2 20 0 0,0
21.04.2018 21:00:00 23,0 11,1 17,3 14,3 12,3 5 3 13 7 WSW 1014,8 20 10 0,0
21.04.2018 20:00:00 25,8 11,9 24,2 14,3 12,2 5 3 10 6 WSW 1014,8 20 57 0,0
21.04.2018 19:00:00 27,2 11,6 29,1 14,3 12,3 6 4 14 7 SSW 1015,3 20 60 0,0
21.04.2018 18:00:00 27,1 11,6 31,9 14,3 12,2 6 4 22 12 SE 1015,6 20 60 0,0
21.04.2018 17:00:00 27,0 11,5 31,5 14,3 12,2 10 6 26 14 S 1016,3 20 60 0,0
21.04.2018 16:00:00 26,7 11,2 33,1 14,3 12,2 7 4 18 10 SE 1016,9 20 60 0,0
21.04.2018 15:00:00 26,3 11,2 31,8 14,2 12,2 5 3 19 10 SE 1017,6 20 60 0,0
21.04.2018 14:00:00 25,6 10,6 28,5 14,2 12,2 9 5 21 11 SSE 1018,2 20 58 0,0
21.04.2018 13:00:00 24,6 11,2 27,1 14,2 12,2 10 6 17 9 SSW 1019,1 20 60 0,0
21.04.2018 12:00:00 23,5 10,5 24,2 14,2 12,2 8 5 21 11 S 1019,5 20 60 0,0
21.04.2018 11:00:00 22,2 13,0 21,8 14,2 12,1 9 5 15 8 S 1019,6 19 60 0,0
21.04.2018 10:00:00 19,7 12,2 18,2 14,2 12,1 3 1 10 5 S 1019,6 20 40 0,0
21.04.2018 09:00:00 16,8 13,1 13,8 14,2 12,1 5 3 9 5 ENE 1019,5 20 22 0,0
21.04.2018 08:00:00 13,4 11,3 9,3 14,1 12,1 8 4 10 6 ENE 1019,4 20 14 0,0
21.04.2018 07:00:00 12,0 9,6 9,2 14,1 12,1 6 3 9 5 ENE 1019,3 20 0 0,0
21.04.2018 06:00:00 13,7 10,1 9,5 14,1 12,1 5 3 9 5 ENE 1019,1 20 0 0,0
21.04.2018 05:00:00 13,5 10,5 10,3 14,0 12,1 6 4 10 5 NE 1019,4 20 0 0,0
21.04.2018 04:00:00 13,8 10,2 10,7 14,0 12,0 5 3 6 3 E 1019,6 20 0 0,0
21.04.2018 03:00:00 15,5 9,6 11,2 13,9 12,1 3 1 9 5 SE 1019,9 20 0 0,0
21.04.2018 02:00:00 17,1 10,5 13,9 13,9 12,1 7 4 16 8 SW 1020,1 20 0 0,0
21.04.2018 01:00:00 17,4 10,7 12,9 13,8 12,0 11 6 15 8 NE 1020,1 20 0 0,0
21.04.2018 00:00:00 18,3 10,4 14,6 13,8 12,0 10 5 15 8 NE 1020,1 20 0 0,0
20.04.2018 23:00:00 19,1 10,6 13,8 13,8 12,0 10 6 17 9 NE 1020,3 20 0 0,0
20.04.2018 22:00:00 19,2 10,7 14,1 13,8 12,0 8 4 11 6 NE 1020,3 20 0 0,0
20.04.2018 21:00:00 21,3 11,6 16,1 13,8 12,0 6 3 9 5 NE 1019,9 20 32 0,0
20.04.2018 20:00:00 24,5 13,1 26,0 13,7 12,0 7 4 16 9 ENE 1019,7 18 60 0,0
20.04.2018 19:00:00 26,0 11,7 28,0 13,7 12,0 9 5 19 10 NE 1019,8 20 60 0,0
20.04.2018 18:00:00 27,2 10,8 32,0 13,7 12,0 8 5 18 10 E 1020,2 20 60 0,0
20.04.2018 17:00:00 27,2 10,8 31,0 13,7 12,0 10 5 26 14 E 1020,7 19 60 0,0

tt = Température de l'air
td = dewpoint
tt 5cm = Température de l'air 5cm
tt -20cm = Température de l'air -20cm
tt -100cm = Température de l'air -100cm
ff = Vitesse du vent
fx = gusts
dd = Direction du vent
ppp = reduced air pressure
vv = visibility
sd = Ensoleillement
rr = Quantités de précipitations

stations d'obs. à proximité